TimeCST,TemperatureF,Dew PointF,Humidity,Sea Level PressureIn,VisibilityMPH,Wind Direction,Wind SpeedMPH,Gust SpeedMPH,PrecipitationIn,Events,Conditions,WindDirDegrees,DateUTC
12:09 AM,43.0,43.0,100,30.10,1.8,NNE,6.9,-,N/A,,Overcast,20,2014-02-04 06:09:00
12:53 AM,43.0,43.0,100,30.10,1.8,NNE,5.8,-,N/A,,Overcast,20,2014-02-04 06:53:00
1:12 AM,43.0,43.0,100,30.09,2.0,NNE,8.1,-,N/A,,Overcast,20,2014-02-04 07:12:00
1:53 AM,43.0,43.0,100,30.10,2.0,North,8.1,-,N/A,,Overcast,10,2014-02-04 07:53:00
2:53 AM,43.0,43.0,100,30.08,2.5,NNE,8.1,-,N/A,,Overcast,20,2014-02-04 08:53:00
3:11 AM,44.1,44.1,100,30.07,3.0,NNE,4.6,-,N/A,,Overcast,30,2014-02-04 09:11:00
3:53 AM,44.1,44.1,100,30.06,3.0,ENE,4.6,-,N/A,,Overcast,60,2014-02-04 09:53:00
4:11 AM,44.1,44.1,100,30.06,2.5,NE,6.9,-,N/A,,Overcast,40,2014-02-04 10:11:00
4:53 AM,45.0,45.0,100,30.06,2.0,NE,3.5,-,N/A,,Overcast,40,2014-02-04 10:53:00
5:05 AM,45.0,44.1,97,30.05,1.5,NE,4.6,-,N/A,,Overcast,40,2014-02-04 11:05:00
5:53 AM,45.0,45.0,100,30.06,1.0,NE,4.6,-,N/A,,Overcast,50,2014-02-04 11:53:00
6:53 AM,46.0,46.0,100,30.07,1.8,ENE,3.5,-,N/A,,Overcast,60,2014-02-04 12:53:00
7:22 AM,46.0,46.0,100,30.07,0.5,NE,3.5,-,N/A,Fog,Fog,50,2014-02-04 13:22:00
7:34 AM,-9999,-9999,N/A,30.06,0.5,North,-9999.0,-,N/A,Fog,Fog,0,2014-02-04 13:34:00
7:53 AM,-9999,-9999,N/A,30.07,0.5,North,-9999.0,-,N/A,Fog,Fog,0,2014-02-04 13:53:00
8:53 AM,-9999,-9999,N/A,30.07,0.8,North,-9999.0,-,N/A,,Overcast,0,2014-02-04 14:53:00
9:53 AM,-9999,-9999,N/A,30.08,0.8,Calm,Calm,-,N/A,,Overcast,0,2014-02-04 15:53:00
10:53 AM,-9999,-9999,N/A,30.06,0.5,Calm,Calm,-,N/A,Fog,Fog,0,2014-02-04 16:53:00
11:53 AM,-9999,-9999,N/A,30.01,0.8,Calm,Calm,-,N/A,,Overcast,0,2014-02-04 17:53:00
12:53 PM,-9999,-9999,N/A,29.97,0.8,Calm,Calm,-,N/A,,Overcast,0,2014-02-04 18:53:00
1:00 PM,-9999,-9999,N/A,29.96,-9999.0,North,-9999.0,-,N/A,,Unknown,0,2014-02-04 19:00:00
1:53 PM,64.9,62.1,90,29.95,10.0,SE,8.1,-,N/A,,Overcast,130,2014-02-04 19:53:00
2:53 PM,64.9,64.0,97,29.93,6.0,SSE,11.5,-,N/A,,Mist,150,2014-02-04 20:53:00
3:04 PM,64.9,64.0,97,29.92,8.0,SSE,9.2,-,N/A,,Overcast,160,2014-02-04 21:04:00
3:36 PM,66.9,64.0,90,29.91,9.0,SSE,8.1,-,N/A,,Overcast,150,2014-02-04 21:36:00
3:44 PM,66.9,64.0,90,29.91,9.0,SSE,6.9,-,N/A,,Overcast,160,2014-02-04 21:44:00
3:53 PM,68.0,64.0,87,29.92,10.0,SSE,9.2,-,N/A,,Mostly Cloudy,160,2014-02-04 21:53:00
4:16 PM,68.0,64.0,87,29.92,10.0,SSE,10.4,-,N/A,,Overcast,150,2014-02-04 22:16:00
4:53 PM,66.0,64.0,93,29.92,10.0,SSE,9.2,-,N/A,,Overcast,150,2014-02-04 22:53:00
5:22 PM,66.0,64.0,93,29.92,9.0,SSE,9.2,-,N/A,,Overcast,160,2014-02-04 23:22:00
5:53 PM,64.9,63.0,93,29.92,10.0,SSE,11.5,-,N/A,,Overcast,150,2014-02-04 23:53:00
6:53 PM,64.9,64.0,97,29.92,8.0,SSE,10.4,-,N/A,,Overcast,160,2014-02-05 00:53:00
7:53 PM,64.9,64.9,100,29.90,6.0,SSE,10.4,20.7,N/A,,Overcast,160,2014-02-05 01:53:00
8:02 PM,64.9,64.9,100,29.90,5.0,SSE,10.4,-,N/A,,Overcast,160,2014-02-05 02:02:00
8:53 PM,66.9,66.9,100,29.90,4.0,South,16.1,23.0,N/A,,Overcast,170,2014-02-05 02:53:00
9:06 PM,66.9,66.9,100,29.89,2.5,South,13.8,26.5,N/A,,Overcast,170,2014-02-05 03:06:00
9:35 PM,66.9,66.9,100,29.89,1.8,South,13.8,23.0,N/A,,Overcast,180,2014-02-05 03:35:00
9:46 PM,66.9,66.9,100,29.90,2.0,South,15.0,28.8,N/A,,Overcast,180,2014-02-05 03:46:00
9:53 PM,66.9,66.9,100,29.91,2.0,South,12.7,24.2,N/A,,Overcast,180,2014-02-05 03:53:00
10:18 PM,66.9,66.9,100,29.90,1.8,South,11.5,23.0,N/A,,Overcast,180,2014-02-05 04:18:00
10:31 PM,66.9,66.9,100,29.90,2.0,South,13.8,23.0,N/A,,Overcast,180,2014-02-05 04:31:00
10:53 PM,66.9,66.9,100,29.91,3.0,South,13.8,24.2,N/A,,Overcast,190,2014-02-05 04:53:00
11:40 PM,66.0,66.0,100,29.92,2.0,SSW,9.2,21.9,N/A,,Overcast,210,2014-02-05 05:40:00
11:53 PM,64.9,64.9,100,29.95,2.0,WSW,11.5,24.2,0.00,Rain,Light Rain,240,2014-02-05 05:53:00